Weather History for Greenville Downtown, SC

Change the Weather History Date:

Wednesday, January 1, 2014

  Actual Average Record
Temperature  
Mean Temperature 41 °F -  
Max Temperature 48 °F 51 °F 68 °F (2005)
Min Temperature 34 °F 33 °F 19 °F (1998)
Degree Days  
Heating Degree Days 24    
Moisture  
Dew Point 27 °F    
Average Humidity 57    
Maximum Humidity 72    
Minimum Humidity 39    
Precipitation  
Precipitation 0.00 in - - ()
Sea Level Pressure  
Sea Level Pressure 30.30 in    
Wind  
Wind Speed 1 mph (SE)    
Max Wind Speed 7 mph    
Max Gust Speed -    
Visibility 10 miles    
Events      
Averages and records for this station are not official NWS values.
T = Trace of Precipitation, MM = Missing Value Source: NWS Daily Summary

Daily Weather History Graph

Daily Weather History Graph

Search for Another Location

Airport:

Trip Planner

Search our weather history database for the weather conditions in past years. The results will help you decide how hot, cold, wet, or windy it might be!

Date:

Astronomy

Jan. 01, 2014 Rise Set
Actual Time 7:37 AM EST 5:29 PM EST
Civil Twilight 7:09 AM EST 5:57 PM EST
Nautical Twilight 6:37 AM EST 6:28 PM EST
Astronomical Twilight 6:06 AM EST 6:59 PM EST
Moon 7:28 AM EST (1/1) 6:09 PM EST (1/1)
Length of Visible Light 10h 48m
Length of Day
9h 52m
New Moon, 0% of the Moon is Illuminated
Jan 1
New Moon
Jan 7
First Quarter
Jan 15
Full
Jan 24
Last Quarter
Jan 30
New

Hourly Weather History & Observations

Time (EST) Temp. Windchill Dew Point Humidity Pressure Visibility Wind Dir Wind Speed Gust Speed Precip Events Conditions
12:53 AM 37.0 °F - 24.1 °F 59% 30.36 in 10.0 mi Calm Calm - N/A   Clear
1:53 AM 37.0 °F - 25.0 °F 62% 30.37 in 9.0 mi Calm Calm - N/A   Clear
2:53 AM 35.1 °F - 26.1 °F 70% 30.36 in 9.0 mi Calm Calm - N/A   Clear
3:53 AM 35.1 °F - 26.1 °F 70% 30.36 in 8.0 mi Calm Calm - N/A   Clear
4:53 AM 35.1 °F - 27.0 °F 72% 30.34 in 10.0 mi Calm Calm - N/A   Clear
5:53 AM 37.0 °F - 26.1 °F 65% 30.37 in 10.0 mi Calm Calm - N/A   Clear
6:53 AM 35.1 °F 32.2 °F 26.1 °F 70% 30.35 in 10.0 mi East 3.5 mph - N/A   Clear
7:53 AM 34.0 °F 29.8 °F 23.0 °F 64% 30.38 in 10.0 mi North 4.6 mph - N/A   Clear
8:53 AM 37.0 °F - 24.1 °F 59% 30.39 in 10.0 mi Calm Calm - N/A   Clear
9:53 AM 42.1 °F 40.2 °F 19.9 °F 41% 30.39 in 10.0 mi ENE 3.5 mph - N/A   Clear
10:53 AM 45.0 °F - 21.0 °F 39% 30.39 in 10.0 mi Calm Calm - N/A   Clear
11:53 AM 46.9 °F - 23.0 °F 39% 30.35 in 10.0 mi Calm Calm - N/A   Clear
12:53 PM 46.9 °F - 26.1 °F 44% 30.32 in 10.0 mi Calm Calm - N/A   Clear
1:53 PM 48.0 °F - 28.0 °F 46% 30.29 in 10.0 mi South 4.6 mph - N/A   Clear
2:53 PM 48.9 °F - 28.0 °F 44% 30.27 in 10.0 mi South 6.9 mph - N/A   Clear
3:53 PM 48.0 °F - 28.0 °F 46% 30.26 in 10.0 mi South 5.8 mph - N/A   Clear
4:53 PM 46.9 °F - 28.9 °F 50% 30.25 in 10.0 mi South 4.6 mph - N/A   Clear
5:53 PM 46.0 °F - 28.9 °F 51% 30.24 in 10.0 mi Calm Calm - N/A   Clear
6:53 PM 44.1 °F - 30.0 °F 58% 30.25 in 10.0 mi Calm Calm - N/A   Clear
7:53 PM 43.0 °F - 30.9 °F 62% 30.23 in 10.0 mi Calm Calm - N/A   Clear
8:53 PM 43.0 °F - 30.9 °F 62% 30.21 in 10.0 mi Calm Calm - N/A   Clear
9:53 PM 42.1 °F - 30.9 °F 65% 30.20 in 10.0 mi Calm Calm - N/A   Mostly Cloudy
10:53 PM 42.1 °F - 33.1 °F 70% 30.19 in 10.0 mi Calm Calm - N/A   Overcast
11:53 PM 42.1 °F - 33.1 °F 70% 30.15 in 10.0 mi Calm Calm - N/A   Overcast